TimeEST,TemperatureF,Dew PointF,Humidity,Sea Level PressureIn,VisibilityMPH,Wind Direction,Wind SpeedMPH,Gust SpeedMPH,PrecipitationIn,Events,Conditions,WindDirDegrees,DateUTC
12:15 AM,45.0,35.2,69,30.14,10.0,North,4.6,-,N/A,,Clear,10,2012-11-21 05:15:00
12:35 AM,44.8,35.6,70,30.14,10.0,North,3.5,-,N/A,,Clear,10,2012-11-21 05:35:00
12:55 AM,44.8,35.6,70,30.15,10.0,Calm,Calm,-,N/A,,Clear,0,2012-11-21 05:55:00
1:15 AM,44.4,35.6,71,30.15,10.0,West,3.5,-,N/A,,Clear,280,2012-11-21 06:15:00
1:35 AM,42.1,35.4,77,30.15,10.0,Calm,Calm,-,N/A,,Clear,0,2012-11-21 06:35:00
1:55 AM,43.9,36.0,74,30.15,10.0,North,3.5,-,N/A,,Clear,10,2012-11-21 06:55:00
2:15 AM,43.9,36.0,74,30.15,10.0,North,3.5,-,N/A,,Clear,360,2012-11-21 07:15:00
2:35 AM,43.2,34.7,72,30.16,10.0,North,4.6,-,N/A,,Clear,360,2012-11-21 07:35:00
2:55 AM,43.2,33.6,69,30.16,10.0,Calm,Calm,-,N/A,,Clear,0,2012-11-21 07:55:00
3:15 AM,42.8,32.9,68,30.16,10.0,Calm,Calm,-,N/A,,Clear,0,2012-11-21 08:15:00
3:35 AM,40.5,32.4,73,30.16,10.0,NW,3.5,-,N/A,,Clear,320,2012-11-21 08:35:00
3:55 AM,40.3,32.0,72,30.16,10.0,North,3.5,-,N/A,,Clear,350,2012-11-21 08:55:00
4:15 AM,41.5,31.8,68,30.16,10.0,North,4.6,-,N/A,,Clear,360,2012-11-21 09:15:00
4:35 AM,41.4,31.6,68,30.17,10.0,North,3.5,-,N/A,,Clear,360,2012-11-21 09:35:00
4:55 AM,41.4,31.6,68,30.18,10.0,North,3.5,-,N/A,,Clear,10,2012-11-21 09:55:00
5:15 AM,41.2,31.5,68,30.18,10.0,North,3.5,-,N/A,,Clear,10,2012-11-21 10:15:00
5:35 AM,40.8,31.5,69,30.19,10.0,NNE,5.8,-,N/A,,Clear,20,2012-11-21 10:35:00
5:55 AM,40.6,31.6,70,30.19,10.0,NNE,3.5,-,N/A,,Clear,20,2012-11-21 10:55:00
6:15 AM,40.3,31.6,71,30.19,10.0,NNE,3.5,-,N/A,,Clear,30,2012-11-21 11:15:00
6:35 AM,40.6,31.8,71,30.19,10.0,North,3.5,-,N/A,,Clear,360,2012-11-21 11:35:00
6:55 AM,40.5,31.8,71,30.20,10.0,North,4.6,-,N/A,,Clear,360,2012-11-21 11:55:00
7:15 AM,41.0,31.6,69,30.20,10.0,North,3.5,-,N/A,,Clear,360,2012-11-21 12:15:00
7:35 AM,41.5,31.3,67,30.21,10.0,Calm,Calm,-,N/A,,Clear,0,2012-11-21 12:35:00
7:55 AM,43.2,31.3,63,30.21,10.0,North,5.8,-,N/A,,Clear,10,2012-11-21 12:55:00
8:15 AM,44.6,31.3,60,30.21,10.0,NNE,4.6,-,N/A,,Clear,20,2012-11-21 13:15:00
8:35 AM,45.7,31.6,58,30.21,10.0,NE,6.9,-,N/A,,Clear,40,2012-11-21 13:35:00
8:55 AM,46.6,32.0,57,30.21,10.0,NNE,4.6,-,N/A,,Clear,30,2012-11-21 13:55:00
9:15 AM,47.5,32.2,55,30.21,10.0,NNE,8.1,-,N/A,,Clear,30,2012-11-21 14:15:00
9:35 AM,48.6,32.9,55,30.22,10.0,NNE,8.1,-,N/A,,Clear,30,2012-11-21 14:35:00
9:55 AM,49.3,34.0,56,30.22,10.0,NNE,8.1,-,N/A,,Clear,20,2012-11-21 14:55:00
10:15 AM,50.4,35.2,56,30.22,10.0,NE,5.8,-,N/A,,Clear,40,2012-11-21 15:15:00
10:35 AM,51.3,35.4,55,30.22,10.0,NE,8.1,-,N/A,,Clear,40,2012-11-21 15:35:00
10:55 AM,51.6,35.6,54,30.22,10.0,North,6.9,-,N/A,,Clear,10,2012-11-21 15:55:00
11:15 AM,52.7,35.6,52,30.21,10.0,NE,9.2,-,N/A,,Clear,50,2012-11-21 16:15:00
11:35 AM,53.4,35.2,50,30.21,10.0,NE,6.9,-,N/A,,Clear,40,2012-11-21 16:35:00
11:55 AM,53.8,33.6,46,30.20,10.0,ENE,9.2,-,N/A,,Clear,60,2012-11-21 16:55:00
12:15 PM,54.1,32.0,43,30.20,10.0,ENE,8.1,-,N/A,,Clear,60,2012-11-21 17:15:00
12:35 PM,54.5,32.0,42,30.19,10.0,NE,9.2,-,N/A,,Clear,50,2012-11-21 17:35:00
12:55 PM,54.9,32.0,42,30.19,10.0,NNE,8.1,-,N/A,,Clear,30,2012-11-21 17:55:00
1:15 PM,55.4,31.6,40,30.18,10.0,ENE,8.1,-,N/A,,Clear,70,2012-11-21 18:15:00
1:35 PM,55.4,31.3,40,30.17,10.0,East,4.6,-,N/A,,Clear,80,2012-11-21 18:35:00
1:55 PM,55.8,31.5,40,30.17,10.0,East,3.5,-,N/A,,Clear,90,2012-11-21 18:55:00
2:15 PM,55.6,31.1,39,30.17,10.0,East,3.5,-,N/A,,Clear,90,2012-11-21 19:15:00
2:35 PM,55.8,30.7,39,30.17,10.0,East,4.6,-,N/A,,Clear,80,2012-11-21 19:35:00
2:55 PM,55.6,30.9,39,30.17,10.0,NNE,4.6,-,N/A,,Clear,20,2012-11-21 19:55:00
3:15 PM,55.0,30.6,39,30.17,10.0,North,3.5,-,N/A,,Clear,360,2012-11-21 20:15:00
3:35 PM,55.2,29.8,38,30.17,10.0,NNE,3.5,-,N/A,,Clear,30,2012-11-21 20:35:00
3:55 PM,54.9,29.8,38,30.18,10.0,ESE,4.6,-,N/A,,Clear,110,2012-11-21 20:55:00
4:15 PM,54.0,29.1,39,30.18,10.0,Calm,Calm,-,N/A,,Clear,0,2012-11-21 21:15:00
4:35 PM,54.0,30.0,40,30.19,10.0,Calm,Calm,-,N/A,,Clear,0,2012-11-21 21:35:00
4:55 PM,53.2,28.2,38,30.19,10.0,Calm,Calm,-,N/A,,Clear,0,2012-11-21 21:55:00
5:15 PM,52.7,27.7,38,30.19,10.0,Calm,Calm,-,N/A,,Clear,0,2012-11-21 22:15:00
5:35 PM,52.5,27.5,38,30.19,10.0,Calm,Calm,-,N/A,,Clear,0,2012-11-21 22:35:00
5:55 PM,51.3,27.7,40,30.20,10.0,Calm,Calm,-,N/A,,Clear,0,2012-11-21 22:55:00
6:15 PM,51.3,27.3,40,30.21,10.0,Calm,Calm,-,N/A,,Clear,0,2012-11-21 23:15:00
6:35 PM,52.0,26.8,38,30.21,10.0,Calm,Calm,-,N/A,,Clear,0,2012-11-21 23:35:00
6:55 PM,52.0,27.7,39,30.22,10.0,WNW,3.5,-,N/A,,Clear,290,2012-11-21 23:55:00
7:15 PM,47.1,29.8,51,30.22,10.0,Calm,Calm,-,N/A,,Clear,0,2012-11-22 00:15:00
7:35 PM,47.7,29.3,49,30.23,10.0,Calm,Calm,-,N/A,,Clear,0,2012-11-22 00:35:00
7:55 PM,46.2,29.3,52,30.23,10.0,Calm,Calm,-,N/A,,Clear,0,2012-11-22 00:55:00
8:15 PM,45.9,28.8,51,30.23,10.0,Calm,Calm,-,N/A,,Clear,0,2012-11-22 01:15:00
8:35 PM,46.0,27.9,49,30.23,10.0,Calm,Calm,-,N/A,,Clear,0,2012-11-22 01:35:00
8:55 PM,45.7,27.1,48,30.24,10.0,North,3.5,-,N/A,,Clear,350,2012-11-22 01:55:00
9:15 PM,45.9,27.1,48,30.23,10.0,NNE,3.5,-,N/A,,Clear,20,2012-11-22 02:15:00
9:35 PM,45.9,26.6,47,30.24,10.0,Calm,Calm,-,N/A,,Clear,0,2012-11-22 02:35:00
9:55 PM,45.5,26.6,48,30.23,10.0,Calm,Calm,-,N/A,,Clear,0,2012-11-22 02:55:00
10:15 PM,43.5,27.3,53,30.24,10.0,Calm,Calm,-,N/A,,Clear,0,2012-11-22 03:15:00
10:35 PM,43.5,27.5,53,30.24,10.0,Calm,Calm,-,N/A,,Clear,0,2012-11-22 03:35:00
10:55 PM,44.1,28.0,53,30.24,10.0,Calm,Calm,-,N/A,,Clear,0,2012-11-22 03:55:00
11:15 PM,43.2,28.4,56,30.24,10.0,Calm,Calm,-,N/A,,Clear,0,2012-11-22 04:15:00
11:35 PM,43.9,27.9,53,30.24,10.0,Calm,Calm,-,N/A,,Clear,0,2012-11-22 04:35:00
11:55 PM,42.8,27.7,55,30.24,10.0,Calm,Calm,-,N/A,,Clear,0,2012-11-22 04:55:00